RADUGA 30 [-]

Last updated on Nov. 12, 2019, 4:19 a.m. UTC

1 22836U 93062A   19315.62304531 -.00000148  00000-0  00000+0 0  9997
2 22836  14.9117   6.5967 0006076 307.4637  40.4211  1.00281948 95614
UTC
Height (km)
Latitude
Longitude
Inclination
Orbital Period
UTC large
Height (km)
Speed (km/s)
/
Latitude / Longitude
Inclination (degrees)
Orbital Period (minutes)
Azimuth
Elevation
Range (km)
Doppler Factor
iOS Compass Heading
iOS Angle

Next 30 passes for location: Hong Kong

Rise time Rise Azimuth (degrees) Set time Set Azimuth (degrees) Duration Max altitude (degrees)

No matching passes for this satellites